User: anonymous   Login
Location: *
(50.3440°N, 18.6237°E)
Time: 07:51:48
(UTC+00:00)
Language:

UNISAT 6 - Orbit

View from above orbital plane
View from above orbital plane
View from above satellite
View from above satellite

Ground track
Ground track

The orbit data is extracted from the following two-line orbital elements,

1 40012U 14033C   21130.83285885  .00000202  00000-0  36974-4 0  9999
2 40012  97.6794 335.2262 0058756  23.4084 336.9780 14.74296910370656
Epoch (UTC): 10 May 2021 19:59:19
Eccentricity: 0.0058756
inclination: 97.6794°
perigee height: 606 km
apogee height: 688 km
right ascension of ascending node: 335.2262°
argument of perigee: 23.4084°
revolutions per day: 14.74296910
mean anomaly at epoch: 336.9780°
orbit number at epoch: 37065

The dashed part of the orbit path shows where the satellite is in the earth's shadow,  

DLR